STARLINK-32845, 62815

Orbit data source: Space-Track

STARLINK-32845, 62815 is a payload satellite owned by SpaceX/Seattle (US) in LEO that was launched on Fri, 24 Jan 2025 UTC via an FALCON 9 launch vehicle from the Air Force Western Test Range (AFWTR). Payload-class satellites include a variety of spacecraft equipped with specific instruments for various scientific and technological missions. These include communications satellites like Starlink; space stations such as the ISS; scientific satellites like the Hubble; Earth observation satellites from companies like Planet Labs, Umbra, and HawkEye 360; GPS; miniature CubeSats for education and research; and military/defense satellites.

Loading next visibility...
Identifier
62815, 2025-018K
Orbit
LEO
Last TLE update
13 hours ago
Origin
Manufacturer
SpaceX/Seattle
Mission
Operational Commercial Communications
Bus & Motor
STARLINK V2M, Unknown motor
Mass
730 kg wet, ~700 kg dry
Launch date (UTC)
2025-01-24 (6 months ago)
Launch vehicle
FALCON 9
Launch site
Air Force Western Test Range (AFWTR)
Object type
Payload
Rocket body
Debris
Shape & HBR
Box + 2 Pan, 29 m
Radar Cross Section
33.884 m², Large (>1 m²)

Expand to show TLE details & history

TLE from 13 hours ago
0 STARLINK-32845
1 62815U 25018K   25191.45103961  .00010387  00000-0  36236-3 0  9997
2 62815  53.1613 354.5597 0001441  70.6970 289.4187 15.30198751 26085
Epoch: 2025-07-10T10:49Z
TLE epoch observation values (Epoch: 2025-07-10T10:49:29.822Z)
Latitude
0.00003°
Longitude
-96.43167°
Altitude
475.79 km
Speed
7.629 km/s
True Right ascension
23h 38m 14s
True Declination
0° 00' 00"
Sunlit
Object was in full shadow at epoch
Visualization orbit readout
Latitude
4.92231°
Longitude
77.31552°
Altitude
475.773 km
Speed
7.629 km/s
Apparent Right ascension
08h 55m 37s
Apparent Declination
-53° 07' 09"
Sunlit
Object is in daylight
Visualization observer readout
Local Sidereal Time
12:23:27
Azimuth
209.055° SW
Elevation
-13.274°
Doppler factor
1
Orbital elements
Apogee altitude
476.463 km
Perigee altitude
474.487 km
Semi-major axis
6,853.612 km
Eccentricity
0.00014
Inclination
53.1613°
RAAN
354.5597°
Arg. of periapsis
70.697°
True anomaly
Unknown
Mean anomaly
289.4187°
Eccentric anomaly
Unknown
Mean motion
3.82529 °/min
Orbital period
94.11 mins
BSTAR
0.00036236
Loading maneuver chart data...
Loading SW <> Apogee altitude chart data...
Loading historical data...
Loading historical data...
Loading historical data...
Loading historical data...
Loading historical data...
Loading historical data...
Loading historical data...

STARLINK-32845 Visibility forecast

Observer location: undefined°, undefined°

Span
Click to sort rows by Start time (UTC) header in descending order
Start Az.
Max El. time (UTC)
Max El. Az.
Max El.
End time (UTC)
End Az.
5 mins2025-07-11 13:40:17.054Z237.47° WSW2025-07-11 13:42:17.054Z272.725° WNW42.924°2025-07-11 13:45:17.054Z45.467° ENE
4 mins2025-07-11 18:37:17.054Z343.771° N2025-07-11 18:39:17.054Z21.379° NNE17.412°2025-07-11 18:41:17.054Z59.524° ENE
6 mins2025-07-11 20:15:17.054Z310.361° NW2025-07-11 20:17:17.054Z312.278° NW43.358°2025-07-11 20:21:17.054Z130.843° SE
|